User: anonymous   Login
Location: Dayton
(39.7590°N, 84.1920°W)
Time: 16:17:29
(UTC-05:00)
Language:

Cosmos 1939 Rocket - Orbit

View from above orbital plane
View from above orbital plane
View from above satellite
View from above satellite

Ground track
Ground track

The orbit data is extracted from the following two-line orbital elements,

1 19046U 88032B   17323.92600161 +.00000388 +00000-0 +33370-4 0  9991
2 19046 097.5128 006.1793 0039423 161.3881 198.8796 15.02349716595734
Epoch (UTC): 19 November 2017 22:13:26
Eccentricity: 0.0039423
inclination: 97.5128°
perigee height: 532 km
apogee height: 587 km
right ascension of ascending node: 6.1793°
argument of perigee: 161.3881°
revolutions per day: 15.02349716
mean anomaly at epoch: 198.8796°
orbit number at epoch: 59573

The dashed part of the orbit path shows where the satellite is in the earth's shadow,  

DLR